Location: Eexterzandvoort
(53.0303°N, 6.7884°E)
Time: 15:03:16
(UTC+00:00)

Daily predictions for brighter satellites

Satellite Brightness Start Highest point End
(mag) Time Altitude Azimuth Time Altitude Azimuth Time Altitude Azimuth
Okean 1 Rocket 3.2 19:50:17 10° S 19:54:34 55° E 19:58:54 10° NNE
Meteor 2-3 Rocket 3.8 19:50:18 10° NNW 19:55:58 88° WSW 20:01:37 10° S
Cosmos 2084 3.4 19:54:04 10° SW 19:58:13 89° SSE 20:02:23 10° NE
SPOT 3 Rocket 4.2 19:54:38 10° SE 19:59:26 41° ENE 20:04:15 10° N
Cosmos 1850 Rocket 4.0 19:55:17 10° NNW 20:00:29 81° ENE 20:05:39 10° SSE
CZ-4 R/B 2.8 19:57:13 10° SSW 20:00:31 33° W 20:03:50 10° NNW
CZ-4B R/B 3.6 19:58:49 10° SE 20:01:44 28° ENE 20:04:43 10° N
Cosmos 1782 3.8 19:59:41 10° SE 20:02:29 23° E 20:05:19 10° NE
ASTEX 1 4.3 20:02:06 10° SSW 20:06:55 52° W 20:11:47 10° NNW
Cosmos 2084 Rocket 4.0 20:06:04 10° NW 20:10:10 51° NE 20:14:18 10° ESE
CZ-4B R/B 3.8 20:04:52 10° S 20:10:28 63° WSW 20:16:05 10° NNW
Cosmos 2056 Rocket 3.9 20:05:09 10° SSW 20:10:33 72° WNW 20:15:56 10° NNE
Cosmos 1833 Rocket 2.7 20:05:56 10° SSW 20:11:32 88° SE 20:17:12 10° NNE
Cosmos 1110 Rocket 4.1 20:06:46 10° S 20:11:57 58° ESE 20:17:10 10° NNE
Cosmos 1802 Rocket 4.1 20:06:19 10° S 20:12:23 59° E 20:18:24 10° NNE
Cosmos 1624 Rocket 4.4 20:08:19 10° SW 20:13:29 70° WNW 20:18:41 10° NNE
Terra 2.6 20:10:08 10° S 20:14:41 50° W 20:19:16 10° NNW
Gbstr 26 Del rocket 3.5 20:09:43 10° W 20:14:51 54° SSW 20:18:53 11° SE
Cosmos 2360 Rocket 4.0 20:11:34 10° NNW 20:16:01 23° NNE 20:20:28 10° E
Sich 1 Rocket 3.5 20:13:02 10° S 20:17:23 79° E 20:21:47 10° NNE
SJ 16-02 4.2 20:17:41 10° WNW 20:19:05 11° W 20:20:30 10° WSW
YAOGAN 11 4.2 20:16:05 10° NNE 20:20:25 57° ESE 20:24:47 10° S
CZ-2C R/B 3.3 20:23:39 13° ESE 20:25:32 25° ENE 20:27:55 10° N
Cosmos 1743 2.0 20:22:42 10° N 20:25:44 84° ENE 20:28:34 11° SSE
Meteor 1-27 4.3 20:26:18 10° S 20:31:53 62° E 20:37:25 10° NNE
Cosmos 44 Rocket 3.6 20:27:16 10° SSW 20:32:08 48° ESE 20:37:06 10° NE
ISS -2.3 20:30:29 10° SSW 20:32:54 19° SE 20:35:05 11° ESE
Cosmos 1459 Rocket 4.1 20:27:09 10° SSW 20:33:25 82° W 20:39:37 10° N
Cosmos 2219 Rocket 4.1 20:29:16 10° NNW 20:33:31 21° NNE 20:37:46 10° E
Meteor 2-12 Rocket 4.4 20:28:45 10° N 20:34:51 77° ENE 20:40:49 11° SSE
Ariane Rocket 3.2 20:32:21 13° SSE 20:36:51 62° ENE 20:41:52 10° N
Cosmos 2100 Rocket 4.3 20:30:48 10° SSW 20:37:00 72° WNW 20:43:21 10° N
ATLAS 2AS CENTAUR R/B 3.1 20:33:59 10° WSW 20:40:53 69° NW 20:47:42 10° NE
Cosmos 2369 3.8 20:35:52 10° NNW 20:41:37 78° ENE 20:46:24 15° SE
SL-4 R/B 4.0 20:40:01 10° WSW 20:42:19 15° SW 20:44:39 10° S
Spot 2 Rocket 4.1 20:38:01 10° S 20:42:55 53° W 20:47:51 10° NNW
Cosmos 2322 Rocket 3.6 20:38:55 10° NNW 20:43:54 30° NE 20:48:53 10° ESE
Cosmos 2082 Rocket 2.6 20:42:21 10° S 20:47:41 42° ESE 20:53:02 10° NE
Okean 2 Rocket 4.2 20:43:29 10° SSW 20:47:47 45° WNW 20:52:08 10° N
USA 305 2.6 20:44:29 10° WNW 20:48:34 69° SSW 20:51:08 19° ESE
Cosmos 1437 Rocket 4.2 20:47:59 16° ESE 20:49:08 18° E 20:51:38 10° NE
Cosmos 2151 3.6 20:46:21 10° N 20:50:16 39° ENE 20:52:53 18° SE
Cosmos 1626 Rocket 3.7 20:52:44 10° N 20:57:03 62° ENE 21:00:04 19° SSE
Cosmos 2233 Rocket 4.0 20:52:17 10° S 20:58:30 79° E 21:04:42 10° NNE
Cosmos 1607 4.1 20:52:44 10° SSW 20:58:37 50° ESE 21:04:38 10° NE
Cosmos 2228 2.8 20:55:36 10° S 20:59:41 81° E 21:03:49 10° NNE
USA 186 3.6 20:58:51 10° SSW 21:00:59 21° W 21:03:10 10° NW
Timation 1 Rocket 4.5 20:56:02 10° SW 21:02:03 81° NW 21:08:08 10° NNE
Okean O Rocket 3.0 20:58:23 10° SSW 21:02:17 33° W 21:06:13 10° NNW
Tsikada Rocket 4.1 20:56:59 10° NNW 21:03:12 77° W 21:08:51 12° S
Cosmos 2278 4.4 20:57:46 10° NNW 21:03:18 47° NE 21:07:47 15° ESE
CZ-4C R/B 1.8 21:04:57 10° SW 21:09:17 85° SE 21:15:00 10° NE
Cosmos 1725 Rocket 4.4 21:03:26 10° SSW 21:09:40 66° WNW 21:15:55 10° N
Cosmos 1992 Rocket 4.4 21:05:58 16° S 21:09:52 44° ESE 21:14:47 10° NE
Meteor 1-20 Rocket 4.2 21:04:21 10° N 21:09:54 70° ENE 21:13:53 20° SSE
Cosmos 1452 Rocket 3.6 21:05:04 10° SSW 21:10:17 78° WNW 21:15:34 10° NNE
SL-16 R/B 2.5 21:05:13 10° NNW 21:10:52 61° NE 21:14:58 19° SE
COSMOS 2406 4.0 21:07:29 18° SSE 21:10:53 33° ESE 21:15:56 10° NE
Helios 1A 4.3 21:08:57 10° NE 21:12:00 21° E 21:13:02 19° ESE
ATLAS 3B R/B 4.1 21:07:52 10° NW 21:14:31 32° WSW 21:20:47 10° S
Okean-O 4.4 21:11:32 10° SSW 21:15:16 27° W 21:19:02 10° NW
Cosmos 1805 3.9 21:13:54 10° N 21:16:51 31° ENE 21:18:02 24° ESE
CZ-4B R/B 3.9 21:19:07 16° S 21:22:50 53° WSW 21:27:32 10° NNW
Cosmos 2333 Rocket 2.4 21:18:06 10° NNW 21:23:47 67° NE 21:27:39 21° SE
Cosmos 1455 Rocket 4.3 21:22:02 10° SW 21:26:12 40° WNW 21:30:23 10° N
Cosmos 1302 Rocket 4.0 21:22:47 10° SSW 21:27:58 87° WNW 21:33:12 10° NNE
Cosmos 2098 Rocket 4.0 21:25:32 23° SE 21:28:04 39° E 21:32:20 10° NNE
Meteor 1-25 Rocket 4.3 21:23:12 10° N 21:28:56 75° ENE 21:32:32 23° SSE
Cosmos 1980 Rocket 3.6 21:29:18 10° NW 21:34:08 29° WSW 21:38:33 12° SSW
CZ-4B R/B 4.3 21:33:11 13° SSW 21:35:30 25° W 21:38:22 10° NW
Cosmos 2061 Rocket 4.2 21:30:20 10° SSW 21:36:31 71° WNW 21:42:49 10° N
Cosmos 1782 4.2 21:33:47 10° SW 21:36:58 31° WNW 21:40:10 10° N
Cosmos 1544 Rocket 3.5 21:35:33 21° S 21:38:25 87° E 21:42:46 10° NNE
Cosmos 724 4.3 21:33:15 10° SW 21:39:17 86° NW 21:45:14 10° NE
NOSS 3-3 (A) 3.8 21:35:01 10° SSW 21:40:08 58° SE 21:46:19 10° NE
DNEPR-1 R/B 4.3 21:39:50 10° NW 21:45:03 76° NE 21:49:21 21° SE
Cosmos 1933 3.1 21:44:20 31° S 21:46:04 80° E 21:49:54 10° NNE
Cosmos 2084 Rocket 4.3 21:44:57 10° WNW 21:48:47 35° SW 21:50:19 26° SSW
Okean 1 4.0 21:49:59 28° ESE 21:50:30 30° E 21:53:41 10° NNE
Cosmos 1758 Rocket 4.3 21:46:53 10° NNW 21:51:04 46° W 21:53:42 21° SSW
Helios 1B rocket 2.3 21:51:51 37° SE 21:52:57 56° ENE 21:56:25 10° N
CZ-2C R/B 4.1 21:55:17 15° SW 21:56:20 18° W 21:58:25 10° NW
Cosmos 1464 Rocket 4.0 21:53:23 25° S 21:57:04 67° E 22:03:13 10° NNE
Cosmos 1513 Rocket 4.5 21:56:21 19° SSW 22:01:00 85° W 22:07:13 10° N
Cosmos 2360 Rocket 2.3 21:55:17 10° NNW 22:01:00 73° NE 22:04:14 26° SE
Meteor 2-10 4.2 21:58:07 10° NNW 22:03:52 88° ENE 22:06:57 29° SSE
Cosmos 1825 Rocket 3.4 22:03:09 10° N 22:07:30 85° E 22:09:11 37° SSE
NOSS 3-3 (C) 3.7 22:02:53 11° SW 22:08:01 72° SE 22:14:27 10° NE
Geosat 3.9 22:03:05 10° NNE 22:08:07 88° NW 22:12:24 14° SW
ALOS 2 3.5 22:06:32 25° ESE 22:08:28 39° ENE 22:12:35 10° N
ARIANE 5 R/B 3.2 22:07:11 29° SE 22:09:05 48° ENE 22:13:22 10° N
Cosmos 1953 Rocket 3.9 22:04:51 10° N 22:09:10 55° ENE 22:10:47 34° SE
ISS -3.0 22:05:57 10° WSW 22:08:14 37° SW 22:08:14 37° SW
Cosmos 1072 Rocket 4.5 22:08:18 24° S 22:12:20 89° E 22:18:43 10° N
Cosmos 2058 Rocket 4.2 22:11:46 25° ESE 22:12:48 28° E 22:16:30 10° NNE
USA 305 4.0 22:10:22 10° W 22:13:09 21° SW 22:13:09 21° SW
BREEZE-M R/B 4.2 22:07:40 10° W 22:16:15 74° S 22:21:55 10° ESE
Cosmos 1602 Rocket 4.3 22:12:38 10° NNW 22:16:43 43° W 22:18:42 26° SSW
Cosmos 1092 Rocket 4.2 22:11:29 10° N 22:17:35 61° ENE 22:20:51 28° SE
Cosmos 2219 Rocket 2.4 22:12:54 10° NNW 22:18:33 65° NE 22:21:48 26° SE
CZ-2C R/B 4.2 22:14:41 10° NNE 22:18:55 42° E 22:20:05 34° SE
DEBRIS 4.3 22:15:27 10° W 22:19:37 68° S 22:35:32 10° E
NOSS 3-4 (A) 3.7 22:14:43 10° NW 22:21:16 80° SW 22:26:01 25° SE
NOSS 3-4 (C) 3.7 22:15:19 10° NW 22:21:54 80° SW 22:26:40 25° SE
Cosmos 1437 Rocket 3.6 22:21:47 23° SW 22:23:32 41° WNW 22:26:57 10° N
Cosmos 540 Rocket 4.3 22:23:21 29° SE 22:24:39 34° ESE 22:29:16 10° NE
Cosmos 1461 2.9 22:26:32 43° ESE 22:26:32 43° ESE 22:29:56 10° NE
Cosmos 2322 Rocket 2.2 22:22:48 10° NW 22:28:27 73° WSW 22:31:03 33° SSE
Cosmos 2034 Rocket 4.0 22:27:37 29° S 22:31:06 79° E 22:37:29 10° NNE
Cosmos 2082 Rocket 3.2 22:26:15 10° WSW 22:31:45 46° NW 22:37:16 10° NNE
ATLAS 2AS CENTAUR R/B 4.3 22:26:34 10° WNW 22:32:51 36° NNW 22:39:04 10° NE
Cosmos 220 Rocket 3.7 22:32:36 42° SSW 22:33:55 85° ESE 22:38:02 10° NNE
Cosmos 1536 2.9 22:33:46 10° N 22:37:23 54° ENE 22:38:06 45° ESE
Cosmos 1707 3.0 22:38:21 36° ENE 22:38:21 36° ENE 22:40:35 10° NNE
USA 234 3.4 22:31:57 10° ENE 22:38:19 51° SE 22:42:49 20° SSW
ACS3 Solar Sail 3.9 22:38:18 10° NE 22:40:49 13° ENE 22:43:19 10° ESE
COSMOS 2428 3.8 22:36:34 10° NNW 22:41:59 41° NE 22:46:33 14° ESE
Cosmos 2237 Rocket 4.1 22:40:25 10° NNW 22:45:10 26° NE 22:49:53 10° E
Helios 1A 3.7 22:43:07 10° N 22:46:54 45° WNW 22:48:44 26° SW
Cosmos 1503 Rocket 4.1 22:41:58 10° NNW 22:47:07 63° WSW 22:49:02 37° S
Cosmos 1777 Rocket 4.4 22:42:17 10° NW 22:47:21 50° WSW 22:49:16 33° SSW
Cosmos 2278 4.4 22:42:03 10° NW 22:47:24 42° WSW 22:49:38 29° SSW
Cosmos 1763 Rocket 3.7 22:45:39 37° SSE 22:47:28 56° ESE 22:52:38 10° NNE
Cosmos-2242 2.9 22:47:28 48° SSE 22:48:26 67° E 22:52:32 10° NNE
CZ-2C R/B 4.2 22:44:38 10° NNE 22:49:49 35° E 22:51:56 27° SE
Cosmos 990 Rocket 3.9 22:45:21 10° NNW 22:50:31 80° WSW 22:52:30 39° SSE
ARGOS Delta rocket 4.1 22:49:22 10° NNE 22:54:17 61° E 22:56:07 38° SSE
SL-16 R/B 3.4 22:49:46 10° NW 22:54:38 30° WSW 22:56:47 23° SW
Cosmos 1606 Rocket 4.2 22:52:45 27° SW 22:54:44 48° WNW 22:58:57 10° N
COSMOS 2406 3.8 22:49:26 11° SW 22:54:55 58° NW 23:00:36 10° NNE
USA 290 2.3 22:56:48 62° E 22:56:48 62° E 22:59:41 10° NNE
Cosmos 1354 Rocket 4.0 22:52:07 10° NNW 22:57:23 73° WSW 22:59:19 39° S
CZ-4C R/B 3.7 22:53:35 10° W 22:58:08 36° NNW 23:03:58 10° NE
Cosmos 1634 Rocket 4.0 22:57:50 34° S 23:00:43 75° E 23:06:55 10° NNE
Cosmos 1766 2.8 22:58:01 10° NNW 23:01:13 62° W 23:01:17 62° WSW
Cosmos 1470 2.7 23:00:41 10° N 23:03:56 50° ENE 23:04:12 49° E
Cosmos 2279 Rocket 4.2 23:01:48 32° SSE 23:04:37 59° E 23:10:45 10° NNE
SeaSat 1 2.8 23:03:53 26° SE 23:06:36 62° NE 23:11:27 10° NNW
Cosmos 2333 Rocket 3.5 23:02:57 10° NW 23:07:40 28° WSW 23:09:39 22° SW
Cosmos 1726 Rocket 4.1 23:06:20 31° SW 23:07:50 46° WNW 23:11:45 10° N
Cosmos 2221 3.3 23:09:57 33° ESE 23:10:45 37° E 23:14:37 10° NNE
Meteor 2-2 Rocket 4.2 23:10:20 35° SSW 23:12:51 90° E 23:18:38 10° NNE
Cosmos 1842 3.0 23:13:51 54° E 23:13:51 54° E 23:16:48 10° NNE
BREEZE-M DEB (TANK) 3.6 23:10:27 10° W 23:17:46 53° S 23:22:40 10° ESE
CZ-2C R/B 2.8 23:16:22 32° SE 23:18:51 67° ENE 23:24:03 10° N
Cosmos 1833 4.1 23:17:41 35° SSW 23:20:10 78° ESE 23:25:50 10° NNE
NOSS 0 Rocket 4.3 23:17:10 10° NNW 23:23:20 61° NE 23:28:04 17° SE
KORONAS-FOTON 3.4 23:25:14 70° WSW 23:25:28 75° WNW 23:28:52 10° N
Helios 1B rocket 4.3 23:25:48 14° W 23:26:16 14° W 23:28:17 10° NW
SAR-Lupe-2 4.1 23:26:37 39° W 23:26:37 39° W 23:29:47 10° NNW
Cosmos 1975 2.5 23:24:04 10° N 23:27:45 77° ENE 23:28:17 62° SE
Aureole 1 Rocket 3.8 23:24:20 10° NNW 23:29:30 66° WSW 23:32:03 35° S
Cosmos 2266 Rocket 4.0 23:25:23 10° N 23:31:26 69° ENE 23:34:28 30° SSE
Cosmos 2322 3.7 23:26:33 10° NNW 23:32:19 84° ENE 23:35:16 30° SE
Cosmos 1812 Rocket 4.0 23:34:01 39° SE 23:35:08 50° E 23:39:25 10° NNE
Cosmos 2297 Rocket 3.8 23:33:58 17° SE 23:35:49 20° E 23:39:48 10° NE
Cosmos 44 3.4 23:30:29 10° NW 23:35:54 74° SW 23:38:07 36° SSE
Cosmos 1271 Rocket 2.2 23:38:07 77° SSE 23:38:18 83° ESE 23:41:44 10° NNE
Cosmos 372 Rocket 3.9 23:36:47 10° NNW 23:41:53 66° WSW 23:43:34 41° S
RESURS DK-1 2.3 23:38:58 10° NNW 23:42:57 73° NE 23:44:13 41° SE
Cosmos 1937 Rocket 3.5 23:38:03 10° NNW 23:43:14 77° ENE 23:45:41 32° SE
Cosmos 2360 Rocket 3.5 23:39:58 10° NW 23:44:28 25° WSW 23:45:58 22° SW
ALOS 2 3.8 23:43:55 27° WSW 23:44:54 30° W 23:48:47 10° NNW
ARIANE 5 R/B 4.0 23:44:33 23° WSW 23:45:36 25° W 23:49:18 10° NW
ISS-0.423:50:53E23:50:53E23:41:23W
Meteor 1-11 Rocket 3.7 23:41:08 10° NNW 23:46:56 84° ENE 23:49:32 34° SSE
GP-B 3.0 23:43:37 10° N 23:48:01 89° E 23:49:14 48° S
Cosmos 2058 Rocket 4.0 23:48:53 27° WSW 23:50:31 38° WNW 23:54:37 10° N
Cosmos 468 Rocket 4.0 23:51:07 37° SSW 23:53:18 88° WNW 23:58:37 10° NNE
